Find Starlink 34564

NORAD ID: 64852 Int'l Des: 2025-152 Owner: SPXS Country: US Constellation: starlink operational
LEOCIRCULARRETROGRADESSO

当前视图

正在加载3D地球...

About Starlink 34564

Starlink 34564 (NORAD 64852) is a starlink constellation satellite (v2 mini) launched Jul 19, 2025 by SPXS of US. It operates in LEO, CIRCULAR, RETROGRADE, SSO orbit with a mass of 575.00 kg.

关于 Starlink 34564

正在加载描述...

即将过境

Passes for default location (London). Set your location on the main map for personalized predictions.

高度历史

Loading altitude history...

两行轨道根数

1 64852U 25152L 26195.60036296 .00002322 00000-0 16478-3 0 9993
2 64852 97.2857 48.5395 0002374 89.3871 270.7628 15.05653452 54514
Epoch: Jul 14, 2026 • Age: 9 hours

当前状态

高度 565.7 km
远地点 / 近地点 N/A
速度 7.58 km/s
星下点 -39.72°S, 125.09°E
发射日期 Jul 19, 2025
运行时间 0.9 years
类型 internet

技术详情

分类 Payload
质量 575.00 kg
干质量 530.00 kg
总质量 575.00 kg
长度 0.30 m
直径 4.10 m
跨度 29.00 m
形状 Box + pan
制造商 SPXS
平台类型 Starlink V2MO
阶段状态 In Orbit
所有者/国家 SPXS/US

Most Searched